Regional Weather Roundup
Issued by NWS

Home | Current Version | Previous Version | Text Only | Print | Product List | Glossary Off
Versions: 1 2 3 4 5 6 7 8 9 10 11 12 13 14 15 16 17 18 19 20 21 22 23 24 25 26 27 28 29 30 31 32 33 34 35 36 37 38 39 40 41 42 43 44 45 46 47 48 49 50

000
ASUS43 KDTX 010901
RWRMI
MICHIGAN HOURLY REGIONAL WEATHER ROUNDUP
NATIONAL WEATHER SERVICE DETROIT/PONTIAC MI
500 AM EDT TUE SEP 01 2015

NOTE: "FAIR" INDICATES FEW OR NO CLOUDS BELOW 12,000 FEET WITH NO
SIGNIFICANT WEATHER AND/OR OBSTRUCTION TO VISIBILITY.

MIZ047>049-052>055-059>063-066>070-074>076-081>083-011000-
SOUTHEAST LOWER MICHIGAN

CITY           SKY/WX    TMP DP  RH WIND       PRES   REMARKS
ADRIAN         CLEAR     62  60  93 CALM      30.09R FOG
ALMA           FOG       61  61 100 CALM      30.07S VSB 1/2
ANN ARBOR      PTCLDY    61  60  97 CALM      30.08R FOG
BAD AXE        FOG       60  60  99 CALM      30.07R VSB 1/4
CARO           FOG       57  57 100 CALM      30.06S VSB 1/4
DETROIT CITY   CLEAR     67  64  90 CALM      30.07S FOG
DETROIT        PTCLDY    69  66  90 CALM      30.08R FOG
FLINT          FOG       62  59  90 S3        30.07S VSB 1/4
GROSSE ILE     FOG       70  66  88 CALM      30.06S VSB 1/2
HILLSDALE      CLEAR     65  65 100 CALM      30.09F FOG
HOWELL           N/A     65  64  98 CALM      30.08R FOG

CITY           SKY/WX    TMP DP  RH WIND       PRES   REMARKS
JACKSON        CLEAR     63  62  97 CALM      30.08S FOG
LAMBERTVILLE   FOG       65  63  91 CALM      30.08S VSB 1/2
LANSING        PTCLDY    63  62  97 CALM      30.08S
LAPEER         FOG       56  56 100 CALM      30.07F VSB 1/4
MASON          FOG       64  61  92 CALM      30.08S VSB 1
MONROE         FOG       63  62  97 CALM      30.07S VSB 1/4
MT. CLEMENS    CLEAR     63  62  98 CALM      30.05S
PONTIAC        CLEAR     62  60  93 CALM      30.07S
PORT HOPE        N/A     66  64  93 SW3       30.04R
PORT HURON     FOG       57  57 100 CALM      30.07R VSB 1/2
TRI CITIES     FOG       64  62  93 SW6       30.06S VSB 1/2
MIDLAND        FOG       59  59  97 CALM      30.05S VSB 1/4
TROY           CLEAR     67  65  92 CALM      30.09R FOG
SAGINAW HB     FOG       61  61 100 CALM      30.05S VSB 1/2
$$
MIZ043>046-050>051-056>058-064>065-071>073-077>080-011000-
SOUTHWEST LOWER MICHIGAN

CITY           SKY/WX    TMP DP  RH WIND       PRES   REMARKS
BATTLE CREEK   CLEAR     67  64  90 S3        30.08S FOG
BENTON HARBOR  CLEAR     66  65  96 CALM      30.05S FOG
BIG RAPIDS     PTCLDY    57  56  97 CALM      30.06S FOG
COLDWATER      CLEAR     63  63 100 CALM      30.08S FOG
FREMONT        FOG       61  61 100 CALM      30.05S VSB 1/2
HOLLAND        CLEAR     66  65  96 CALM      30.06S FOG
GRAND RAPIDS   CLEAR     65  64  97 CALM      30.07R FOG
IONIA          FOG       62  62 100 CALM      30.06S VSB 1/4
KALAMAZOO      CLEAR     65  63  93 CALM      30.07F FOG
LUDINGTON      FOG       61  59  93 CALM      30.04S VSB 3/4
MARSHALL       FOG       62  61  97 CALM      30.08S VSB 1/2
MOUNT PLEASANT FOG       61  59  94 CALM      30.06R VSB 1/4
MUSKEGON       CLEAR     65  61  87 CALM      30.05S FOG
SOUTH HAVEN    CLEAR     67  65  93 CALM      30.05S FOG
$$
MIZ016>042-011000-
NORTHERN LOWER MICHIGAN

CITY           SKY/WX    TMP DP  RH WIND       PRES   REMARKS
ALPENA         CLEAR     58  56  93 CALM      30.03R
BEAVER ISLAND  CLEAR     66  65  95 SW9       30.01R FOG
BELLAIRE       PTCLDY    59  58  96 CALM      30.03S FOG
CADILLAC       FOG       57  56  94 CALM      30.06S VSB<1/4
CHARLEVOIX     CLEAR     67  66  97 S5        30.05S
FRANKFORT      CLEAR     69  66  90 SW3       30.03S
GAYLORD        CLEAR     63  63 100 W5        30.05S FOG
GRAYLING       FOG       56  56  99 W3        30.06R VSB 1/4
HARBOR SPRINGS CLEAR     66  65  97 SW6       30.02S
HOUGHTON LAKE  CLEAR     64  62  93 SW5       30.06S
MANISTEE       CLEAR     59  55  88 E3        30.05R VSB 1
OSCODA         FOG       60  60  99 SW5       30.03R VSB 1/2
PELLSTON       CLEAR     59  58  96 SW5       30.02R
ROGERS CITY    CLEAR     64  63  95 SW6       30.03R FOG
TRAVERSE CITY  CLEAR     65  62  90 CALM      30.02R FOG
$$
MIZ007>008-015-011000-
EASTERN UPPER MICHIGAN

CITY           SKY/WX    TMP DP  RH WIND       PRES   REMARKS
KINROSS        CLOUDY    64  64 100 SW3       30.00S VSB 1/2
MACKINAC ISLAN CLOUDY    66  65  97 W9        30.00S FOG
NEWBERRY       CLOUDY    66  66  99 SW10      29.99S FOG
S. S. MARIE    FOG       64  63  96 S5        29.99R VSB 1/2
$$
MIZ004>006-011>014-085-011000-
CENTRAL UPPER MICHIGAN

CITY           SKY/WX    TMP DP  RH WIND       PRES   REMARKS
MANISTIQUE     MOCLDY    63  62  97 S3        29.99S FOG
ESCANABA       CLOUDY    63  61  94 CALM      29.98S VSB 1/4
MENOMINEE      CLEAR     66  63  88 SW5       29.98S
SAWYER-GWINN   FOG       65  64  96 S5        29.98S VSB 1/4
$$
MIZ001>003-009>011-084-011000-
WESTERN UPPER MICHIGAN

CITY           SKY/WX    TMP DP  RH WIND       PRES   REMARKS
IRON MOUNTAIN  CLEAR     64  63  96 SE5       29.98R FOG
HOUGHTON       CLEAR     69  66  90 SW5       29.91R
IRONWOOD       PTCLDY    73  70  88 SW8       29.90S
$$

ABBREVIATIONS USED IN REMARKS
   TC - TEMPERATURE IN CELSIUS
  WCI - WIND CHILL INDEX
   HX - HEAT INDEX
  VSB - VISIBILITY




USA.gov is the U.S. government's official web portal to all federal, state and local government web resources and services.